[[{"header":{"parameterUnit":"m.s-1","parameterCategory":1,"la1":30.2991,"la2":30.254,"lo1":-89.0895,"lo2":-89.0444,"dy":0.0017,"dx":0.0017,"nx":28,"ny":28,"refTime":"2024-07-29T21:00:00:Z","depth":0,"parameterNumber":2,"parameterNumberName":"U-component_of_WINDS"},"data":[0,0,0,0,0,0,0,0,0,0,0,0,0,0,0,0,0,0,0,0,0,0,0,0,0,0,0,0,0,0,0,0,0,0,0,0,0,0,0,0,0,0,0,0,0,0,0,0,0,0,0,0,0,0,0,0,0,0,5.4165,5.4167,0,5.4302,5.4304,5.4305,5.4193,5.4188,5.4183,5.4179,5.4323,5.4331,5.434,0,0,0,0,0,0,0,0,0,0,0,0,0,5.3809,5.3816,5.4165,5.4167,5.4168,5.4302,5.4304,5.4306,5.4194,5.4188,5.4182,5.4177,5.4321,5.433,5.434,0,0,0,0,0,0,0,0,0,0,0,0,0,5.3957,5.3818,5.4165,5.4129,5.4127,5.4302,5.4304,5.4306,5.4195,5.4188,5.4181,5.4174,5.4317,5.433,5.4342,5.4561,0,0,5.438,5.4385,0,0,0,0,0,0,0,0,5.3949,5.397,5.4132,5.4131,5.4129,5.4223,5.4231,5.4392,5.4197,5.4169,5.4179,5.4171,5.4296,5.431,5.4351,5.4568,5.4574,5.4381,5.4388,5.4394,5.4397,0,0,0,0,0,0,0,5.3938,5.3963,5.4219,5.4135,5.4133,5.4106,5.4119,5.4261,5.4271,5.4171,5.4163,5.4181,5.4294,5.434,5.4354,5.4576,5.438,5.4391,5.4399,5.4404,5.4978,5.4985,0,0,0,0,0,0,5.3931,5.3956,5.4215,5.4223,5.4019,5.4119,5.4133,5.42,5.4269,5.4273,5.4187,5.4175,5.4322,5.434,5.4359,5.4618,5.4394,5.4405,5.4412,5.497,5.498,5.4988,0,0,0,0,0,0,5.3924,5.3956,5.4209,5.4088,5.4118,5.4132,5.4209,5.4207,5.4252,5.4281,5.4282,5.4231,5.4317,5.4341,5.4511,5.4622,5.4411,5.4422,5.4961,5.4973,5.4984,5.5141,0,0,0,0,0,0,5.3914,5.3954,5.4036,5.409,5.4125,5.4359,5.4215,5.4215,5.4273,5.4259,5.4323,5.4327,5.4313,5.4493,5.4523,5.4635,5.4432,5.4951,5.4966,5.498,5.5126,5.5157,5.5183,0,0,0,0,0,5.3902,5.4076,5.4041,5.4073,5.4228,5.4366,5.4386,5.4365,5.4283,5.4366,5.4385,5.4325,5.4605,5.4511,5.4544,5.4662,5.4944,5.4962,5.4979,5.5113,5.5151,5.5182,0,0,0,0,0,0,5.4037,5.4083,5.4044,5.4241,5.43,5.4346,5.4451,5.4406,5.4491,5.4474,5.4446,5.4462,5.464,5.4668,5.4563,5.4877,5.4761,5.4786,5.4852,5.4888,5.4916,5.4905,5.4442,0,0,0,0,0,5.4089,5.4196,5.4231,5.4401,5.4433,5.4437,5.4497,5.4475,5.4536,5.4561,5.4592,5.4654,5.4755,5.4823,5.4919,5.513,5.5142,5.5227,5.5255,5.5278,5.53,5.5413,5.5451,5.5046,5.5045,5.5045,0,0,5.42,5.4238,5.4307,5.4429,5.4473,5.4584,5.4459,5.4583,5.4666,5.458,5.4741,5.4767,5.4834,5.5025,5.5111,5.5054,5.5415,5.5301,5.5319,5.5328,5.5435,5.5473,5.5507,5.5058,5.5055,5.5053,0,0,5.4456,5.4496,5.4642,5.4687,5.4754,5.4756,5.4791,5.4844,5.4857,5.5018,5.4956,5.5054,5.5231,5.5281,5.533,5.5605,5.5553,5.5637,5.5786,5.5896,5.5928,5.5956,5.6053,5.6088,5.5659,5.5659,5.5659,0,5.4585,5.475,5.4723,5.4851,5.4906,5.4832,5.498,5.5026,5.5121,5.5162,5.5096,5.5314,5.5355,5.5556,5.5623,5.5665,5.5704,5.5629,5.5925,5.5953,5.5979,5.6071,5.6108,5.5669,5.5668,5.5667,5.5666,0,5.4904,5.5019,5.5129,5.5221,5.5289,5.5426,5.5421,5.5493,5.5466,5.5475,5.564,5.5686,5.5789,5.5835,5.5811,5.6033,5.5995,5.5928,5.5811,5.6028,5.6114,5.6149,5.5683,5.5679,5.5676,5.5674,0,0,5.525,5.5324,5.5365,5.5405,5.5473,5.5562,5.5696,5.5795,5.5857,5.5926,5.6037,5.6187,5.6125,5.618,5.6161,5.6258,5.6472,5.6179,5.618,5.6231,5.6718,5.6768,5.6809,5.6438,5.6444,5.645,5.6712,0,5.5509,5.5741,5.572,5.594,5.6046,5.5977,5.6093,5.6148,5.616,5.6252,5.6266,5.6372,5.6282,5.6315,5.6408,5.6426,5.6569,5.6407,5.6541,5.6546,5.6526,5.6854,5.6907,5.7153,5.6746,5.6752,5.6756,0,5.5843,5.592,5.615,5.6201,5.6244,5.635,5.6438,5.6527,5.6587,5.6589,5.6651,5.6615,5.675,5.663,5.6816,5.6706,5.676,5.6778,5.6787,5.6798,5.6664,5.6874,5.7231,5.7267,5.6809,5.6805,5.6801,0,5.6071,5.6234,5.6392,5.6428,5.6491,5.6567,5.6597,5.665,5.671,5.6788,5.6827,5.692,5.6972,5.7045,5.7035,5.6949,5.7224,5.7104,5.7229,5.723,5.729,5.7286,5.766,5.7327,5.7326,5.7326,5.7325,0,5.6362,5.6506,5.6495,5.6592,5.675,5.6726,5.6883,5.6905,5.6952,5.7053,5.7,5.7095,5.7077,5.7173,5.7166,5.7321,5.7345,5.735,5.7346,5.7354,5.7354,5.7389,5.7371,5.7335,5.7333,5.7331,5.733,0,5.6644,5.6643,5.681,5.6855,5.687,5.6985,5.7024,5.7116,5.7123,5.7251,5.7279,5.7291,5.7401,5.7398,5.7524,5.7519,5.7708,5.7686,5.7688,5.7683,5.7808,5.7796,5.8217,5.827,5.7903,5.7907,5.7909,0,5.6829,5.6938,5.6994,5.7057,5.7091,5.7193,5.7254,5.7234,5.73,5.7376,5.7459,5.7563,5.7646,5.7824,5.7845,5.794,5.7918,5.8059,5.7933,5.7937,5.7919,5.7913,5.7923,5.8084,5.8088,5.8092,5.8094,0,5.7158,5.7152,5.7241,5.733,5.7404,5.7473,5.7537,5.7592,5.7579,5.7655,5.7766,5.783,5.7957,5.8061,5.8152,5.8184,5.8138,5.8134,5.8168,5.8177,5.8173,5.8175,5.7754,5.8124,5.8121,5.8119,5.8118,5.8116,5.7397,5.7489,5.7543,5.7644,5.7689,5.775,5.7838,5.7855,5.7946,5.8047,5.803,5.8154,5.8211,5.8328,5.8368,5.8465,5.8415,5.8465,5.8477,5.8489,5.8503,5.8158,5.8482,5.8481,5.848,5.8479,5.8479,0,5.7722,5.7753,5.7846,5.7935,5.8015,5.7963,5.803,5.81,5.8209,5.8266,5.8347,5.8474,5.8575,5.8603,5.8699,5.8772,5.8753,5.8798,5.8792,5.88,5.8542,5.8503,5.8811,5.8811,5.8811,5.8811,5.8811,5.8811,5.7901,5.8053,5.8054,5.8229,5.8258,5.8378,5.8421,5.8476,5.8521,5.8664,5.8747,5.8764,5.8809,5.8908,5.8998,5.9004,5.9042,5.9095,5.9092,5.8851,5.8818,5.8786,5.8749,5.9104,5.9104,5.9341,5.9343,5.9345]},{"header":{"parameterUnit":"m.s-1","parameterCategory":1,"la1":30.2991,"la2":30.254,"lo1":-89.0895,"lo2":-89.0444,"dy":0.0017,"dx":0.0017,"nx":28,"ny":28,"refTime":"2024-07-29T21:00:00:Z","depth":0,"parameterNumber":3,"parameterNumberName":"V-component_of_WINDS"},"data":[0,0,0,0,0,0,0,0,0,0,0,0,0,0,0,0,0,0,0,0,0,0,0,0,0,0,0,0,0,0,0,0,0,0,0,0,0,0,0,0,0,0,0,0,0,0,0,0,0,0,0,0,0,0,0,0,0,0,0.401,0.401,0,0.4084,0.4084,0.4085,0.4102,0.4102,0.4101,0.4101,0.4178,0.4181,0.4183,0,0,0,0,0,0,0,0,0,0,0,0,0,0.3884,0.3886,0.4009,0.401,0.4011,0.4083,0.4084,0.4085,0.4102,0.4102,0.4101,0.41,0.4178,0.4181,0.4184,0,0,0,0,0,0,0,0,0,0,0,0,0,0.3946,0.3887,0.4009,0.4028,0.4031,0.4083,0.4084,0.4086,0.4102,0.4101,0.4101,0.41,0.4177,0.418,0.4184,0.4224,0,0,0.4196,0.4198,0,0,0,0,0,0,0,0,0.3943,0.3951,0.4025,0.4027,0.403,0.4083,0.4069,0.4132,0.4102,0.4075,0.41,0.41,0.4147,0.4154,0.4169,0.4227,0.4231,0.4196,0.4199,0.42,0.4201,0,0,0,0,0,0,0,0.3938,0.3948,0.4039,0.4026,0.4029,0.4034,0.4042,0.4081,0.4115,0.4077,0.4079,0.4087,0.4149,0.4166,0.4171,0.4232,0.4196,0.42,0.4202,0.4203,0.4326,0.4326,0,0,0,0,0,0,0.393,0.3944,0.4036,0.4041,0.3983,0.4036,0.4045,0.4067,0.4114,0.4121,0.4088,0.4088,0.4159,0.4167,0.4174,0.4223,0.42,0.4204,0.4206,0.4325,0.4326,0.4327,0,0,0,0,0,0,0.3928,0.3939,0.4033,0.3993,0.4005,0.4039,0.4063,0.4068,0.4085,0.4122,0.4129,0.4099,0.4159,0.4169,0.4211,0.4226,0.4206,0.4209,0.4324,0.4325,0.4326,0.4322,0,0,0,0,0,0,0.3924,0.3937,0.3953,0.3993,0.4007,0.4069,0.4064,0.407,0.4092,0.4092,0.4134,0.414,0.4159,0.4205,0.4215,0.4231,0.4212,0.4322,0.4324,0.4326,0.4321,0.4324,0.4325,0,0,0,0,0,0.3919,0.3949,0.3953,0.3964,0.4027,0.407,0.4078,0.4098,0.4093,0.4109,0.4132,0.4139,0.4223,0.4209,0.422,0.4238,0.4322,0.4324,0.4326,0.432,0.4323,0.4325,0,0,0,0,0,0,0.3911,0.3955,0.396,0.4003,0.4032,0.4072,0.4093,0.4101,0.4132,0.4132,0.4156,0.4166,0.4206,0.4226,0.4211,0.4279,0.4272,0.4276,0.4264,0.4267,0.4269,0.4264,0.4215,0,0,0,0,0,0.3913,0.3944,0.3981,0.4016,0.403,0.4059,0.4078,0.4091,0.4123,0.4135,0.4162,0.4193,0.4226,0.4248,0.428,0.4324,0.4333,0.4342,0.4344,0.4345,0.4349,0.4373,0.4377,0.4334,0.4334,0.4334,0,0,0.392,0.3948,0.3966,0.4015,0.4039,0.407,0.4069,0.4103,0.4126,0.4141,0.4182,0.4203,0.4239,0.4282,0.4302,0.43,0.4363,0.4348,0.4349,0.4352,0.4376,0.438,0.4384,0.4335,0.4335,0.4335,0,0,0.3948,0.3972,0.4004,0.4028,0.4064,0.4083,0.409,0.4129,0.4143,0.4184,0.4196,0.4224,0.4281,0.4306,0.4326,0.4362,0.437,0.4372,0.4383,0.4407,0.441,0.4413,0.4427,0.4431,0.4376,0.4376,0.4376,0,0.3952,0.4,0.4019,0.4052,0.4073,0.4086,0.4119,0.4141,0.4186,0.4201,0.4197,0.4268,0.4293,0.4342,0.4351,0.4367,0.4376,0.4368,0.4408,0.4411,0.4415,0.4428,0.4432,0.4376,0.4376,0.4376,0.4376,0,0.4003,0.4035,0.4057,0.4099,0.4122,0.4155,0.4179,0.4201,0.4211,0.4231,0.4273,0.4303,0.4342,0.4354,0.4366,0.4405,0.4402,0.4403,0.4397,0.4419,0.4431,0.4436,0.4376,0.4376,0.4376,0.4376,0,0,0.4029,0.4081,0.4088,0.4107,0.4148,0.4173,0.4206,0.4243,0.4261,0.4291,0.432,0.4367,0.4367,0.439,0.4404,0.4425,0.4451,0.4423,0.4424,0.4427,0.4497,0.4496,0.4502,0.4456,0.4457,0.4458,0.4494,0,0.4062,0.4121,0.4139,0.4188,0.4218,0.4231,0.4259,0.4287,0.4306,0.4334,0.4355,0.4388,0.4386,0.44,0.4421,0.4444,0.4466,0.4441,0.4483,0.4485,0.4475,0.4508,0.4508,0.4541,0.4499,0.45,0.45,0,0.411,0.414,0.4192,0.4227,0.4241,0.4266,0.4301,0.4328,0.436,0.4372,0.4397,0.4409,0.4444,0.4434,0.4483,0.4466,0.4484,0.4498,0.4499,0.4505,0.4494,0.4515,0.4551,0.4556,0.4508,0.4508,0.4507,0,0.4124,0.4177,0.4215,0.4231,0.4274,0.4291,0.431,0.4341,0.4362,0.4392,0.4406,0.4441,0.446,0.4487,0.4508,0.4499,0.4554,0.4547,0.4565,0.4565,0.4577,0.4576,0.4618,0.4588,0.4588,0.4588,0.4588,0,0.416,0.4191,0.4222,0.4245,0.4281,0.4301,0.4336,0.4355,0.4382,0.441,0.4423,0.4448,0.4474,0.4503,0.452,0.4557,0.4566,0.4577,0.4581,0.4576,0.4575,0.4589,0.4587,0.4589,0.4589,0.4589,0.4588,0,0.4182,0.4204,0.4246,0.4282,0.4292,0.4317,0.4348,0.4371,0.4389,0.4424,0.4433,0.4463,0.4497,0.4521,0.4565,0.4576,0.4617,0.4621,0.4606,0.4609,0.4626,0.4624,0.4678,0.4686,0.4651,0.4651,0.4651,0,0.4204,0.4228,0.4267,0.4285,0.4304,0.4334,0.4356,0.4376,0.4398,0.4435,0.4454,0.4489,0.4519,0.4574,0.4599,0.4634,0.4638,0.4655,0.4644,0.4638,0.4639,0.4637,0.464,0.4657,0.4657,0.4657,0.4658,0,0.424,0.425,0.4279,0.4312,0.4337,0.4364,0.4392,0.4407,0.4432,0.4456,0.4491,0.4514,0.4559,0.4594,0.463,0.465,0.4658,0.4661,0.4667,0.4662,0.4653,0.4659,0.4612,0.466,0.4659,0.4659,0.4659,0.4659,0.4263,0.4285,0.4315,0.4348,0.437,0.4396,0.4419,0.444,0.4469,0.4507,0.4518,0.4554,0.4585,0.4634,0.4654,0.4684,0.4682,0.4691,0.4693,0.4695,0.4695,0.4648,0.469,0.469,0.469,0.469,0.469,0,0.4301,0.432,0.435,0.4387,0.4413,0.4417,0.4448,0.4469,0.4501,0.4528,0.4557,0.4597,0.4631,0.4658,0.4693,0.4711,0.4716,0.472,0.4719,0.4723,0.4695,0.4686,0.4715,0.4715,0.4715,0.4715,0.4715,0.4715,0.4323,0.436,0.4373,0.4422,0.4441,0.4477,0.4494,0.4517,0.4539,0.4583,0.4611,0.4628,0.4656,0.4693,0.4724,0.4731,0.4744,0.4747,0.4755,0.4728,0.4725,0.4723,0.4715,0.4749,0.4749,0.4781,0.4781,0.4781]}]]